Weather Roundup
Issued by NWS Corpus Christi, TX

Home | Current Version | Previous Version | Text Only | Print | Product List | Glossary On
Versions: 1 2 3 4 5 6 7 8 9 10 11 12 13 14 15 16 17 18 19 20 21 22 23 24 25 26 27 28 29 30 31 32 33 34 35 36 37 38 39 40 41 42 43 44 45 46 47 48 49 50
000
ASUS44 KCRP 230910
HRRCRP

SOUTH TEXAS REGIONAL WEATHER ROUNDUP
NATIONAL WEATHER SERVICE CORPUS CHRISTI TX
400 AM CDT WED APR 23 2014


TXZ229>244-231000-
...CORPUS CHRISTI AREA OBSERVATIONS...

CITY           SKY/WX    TMP DP  RH WIND       PRES   REMARKS
CORPUS CHRISTI PTCLDY    70  67  90 SE8       29.90F
NAS CORPUS CHR CLEAR     71  70  96 S8        29.90F
ROCKPORT       CLEAR     70  68  93 S5        29.91F
KINGSVILLE NAS CLEAR     69  67  93 S8        29.90F
ALICE          CLEAR     64  62  93 SE5       29.89F
FALFURRIAS     CLEAR     68  65  90 CALM      29.90S
$$

...VICTORIA AREA OBSERVATIONS...

CITY           SKY/WX    TMP DP  RH WIND       PRES   REMARKS
VICTORIA       FOG       65  64  97 S3        29.92S VSB 1/4
BEEVILLE       FAIR      66  66 100 SE5       29.91S
PLEASANTON     CLEAR     66  63  87 CALM      29.91S
SAN ANTONIO    CLEAR     66  61  84 E3        29.93S
$$

...LAREDO AREA OBSERVATIONS...

CITY           SKY/WX    TMP DP  RH WIND       PRES   REMARKS
LAREDO         CLEAR     74  68  81 SE10      29.89F
COTULLA        CLEAR     71  63  75 SE8       29.88F
DEL RIO        CLEAR     74  58  57 E12       29.86S
MCALLEN        MOCLDY    70  68  94 SE8       29.89F
HEBBRONVILLE   CLOUDY    68  65  90 SE6       29.90F
$$

...OTHER TEXAS OBSERVATIONS...

CITY           SKY/WX    TMP DP  RH WIND       PRES   REMARKS
BROWNSVILLE    MOCLDY    68  68 100 SE6       29.90F
HOUSTON        PTCLDY    64  63  96 CALM      29.93S
COL. STATION   CLEAR     64  60  87 SE3       29.92F
AUSTIN         CLEAR     57  56  96 CALM      29.92F
WACO           CLEAR     54  54 100 CALM      29.93S
FORT WORTH     CLEAR     63  57  81 SE3       29.91F
WICHITA FALLS  CLEAR     60  53  77 S10       29.89S
LUBBOCK        PTCLDY    62  44  51 S17       29.88F
EL PASO        MOCLDY    74  25  16 SW9       29.83F
$$

...MARINE OBSERVATIONS...

STATION/POSITION TIME  SKY/WX   TEMP    WIND        PRES    VSBY  WAVE   SWELL
                                AIR SEA DIR/SP/G                  HT/PER HT/PER
                 (UTC)          (F)     (DEG/KT/KT) (MB)    (MI)  (FT/S) (FT/S)
PORT ARANSAS     0900            70 73  160/  6/  6 1012.9F
BUOY 90 E PORT A NOT AVBL
BUOY 45 SE BAFFI 0900            70 70  140/  4/  6 1012.6F         1/ 5   2/ 5
BUOY 200 E PT IS NOT AVBL
BUOY 15 E GALVES 0900            70 70  210/  4/  4 1013.3F         1/ 5
$$


USA.gov is the U.S. government's official web portal to all federal, state and local government web resources and services.